Content
SEND FEEDBACK

Daily
Averages
Monthly
Summary
United States of America

EAGLE VILLAGE, ALASKA


Home > North America > United States > Alaska
Elevation: 750 feet     Latitude: 64 47N     Longitude: 141 12W

WEATHER
 
SELECT A DAY
Number of Records: 158,283;   Date Range: 1/18/95 - 8/12/14
 
SHARE

PRINT THIS DATA

[ ← Previous Day ]
WEATHER ALMANAC - FEBRUARY 13, 2013
[ Next Day → ]
[ °C ]   °F
Weather ElementAverageHighLow
Temperature4.5 °F21.9 °F (1:53 pm)-11 °F (1:53 am)
Dewpoint-2.8 °F9 °F (1:53 pm)-16.1 °F (1:53 am)
Humidity72.4 %83 % (7:53 am)58 % (1:44 pm)
Barometer29.96 in29.98 in (4:53 am)29.89 in (6:37 am)
Wind Speed2.4 mph9.2 mph (10:53 am)
Wind Gust20.7 mph (10:53 am)
Weather ElementAverage
Visibility10 mi
Wind DirectionENE (51.1 °)

Weather ElementTotal
Precipitation---
Heating Degree Days59.6 (Base 65)
Averaged from 27 records on February 13, 2013
WEATHER CONDITIONS BREAKOUT
WIND DIRECTION BREAKOUT
WEATHER BY HOUR - FEBRUARY 13, 2013
[ °C ]   °F
Local TimeTemperatureDewpointHumidityBarometerVisibilityWind DirectionWind SpeedGust SpeedPrecipitationEventsConditions
1:53 AM-11.0 °F-16.1 °F78 %29.95 in10.0 miCalmClear
2:53 AM-7.1 °F-13.0 °F75 %29.96 in10.0 miCalmClear
3:53 AM-9.0 °F-15.0 °F75 %29.97 in10.0 miCalmClear
4:53 AM-9.9 °F-16.1 °F74 %29.98 in10.0 miWSW (250°)3.5 mphClear
5:53 AM-9.0 °F-15.0 °F75 %29.98 in10.0 miCalmClear
6:37 AM-9.4 °F-14.8 °F77 %29.89 in10.0 miCalmMostly Cloudy
6:53 AM-8.0 °F-15.0 °F71 %29.98 in10.0 miCalmOvercast
7:10 AM-4.0 °F-9.4 °F78 %29.89 in10.0 miEast (80°)4.6 mphOvercast
7:27 AM-4.0 °F-9.4 °F78 %29.89 in10.0 miWest (260°)3.5 mphScattered Clouds
7:53 AM-7.1 °F-11.0 °F83 %29.98 in10.0 miWSW (250°)3.5 mphClear
8:53 AM-0.9 °F-7.1 °F75 %29.98 in10.0 miCalmClear
9:53 AM6.1 °F0.0 °F76 %29.98 in10.0 miCalmScattered Clouds
10:53 AM16.0 °F8.1 °F71 %29.97 in10.0 miESE (120°)9.2 mph20.7 mphClear
11:53 AM17.1 °F8.1 °F68 %29.98 in10.0 miVariable6.9 mphPartly Cloudy
12:53 PM18.0 °F8.1 °F65 %29.98 in10.0 miEast (90°)9.2 mphClear
1:44 PM21.2 °F8.6 °F58 %29.91 in10.0 miESE (110°)6.9 mphPartly Cloudy
1:53 PM21.9 °F9.0 °F58 %29.98 in10.0 miVariable4.6 mphPartly Cloudy
2:53 PM19.9 °F8.1 °F60 %29.97 in10.0 miSE (130°)5.8 mph0.00 inClear
3:53 PM17.1 °F7.0 °F65 %29.96 inVariable3.5 mphClear
4:53 PM14.0 °F5.0 °F67 %29.96 in10.0 miCalmClear
5:53 PM10.9 °F3.9 °F73 %29.96 in10.0 miCalmClear
6:53 PM8.1 °F1.9 °F76 %29.97 in10.0 miCalmClear
7:53 PM16.0 °F6.1 °F65 %29.97 in10.0 miEast (90°)3.5 mphClear
8:53 PM6.1 °F1.0 °F80 %29.97 in10.0 miCalmClear
9:53 PM1.0 °F-2.9 °F83 %29.97 in10.0 miCalmClear
10:53 PM3.0 °F-2.9 °F76 %29.96 in10.0 miCalmClear
11:53 PM3.9 °F-2.0 °F76 %29.97 in10.0 miCalmClear
Hourly data recorded from PAEG, located miles away from Eagle Village, Alaska







STORIES FROM OUR PARTNERS